Location: Arnolds Mill
(42.3415°N, 73.5951°W)
Time: 11:21:54
(UTC+00:00)

BlueWalker 3 - Pass Details

Date: 21 June 2024
Orbit: 480 x 492 km, 53.2° (Epoch: 13 July)

Event Time Altitude Azimuth Distance (km) Brightness Sun altitude
Rises 08:11:25 0° 302° (WNW) 2,539 5.4 -10.3°
Reaches altitude 10° 08:13:39 10° 296° (WNW) 1,657 4.4 -10.0°
Maximum altitude 08:17:13 43° 224° (SW) 680 2.1 -9.6°
Drops below altitude 10° 08:20:45 10° 152° (SSE) 1,651 4.4 -9.1°
Sets 08:22:58 0° 145° (SE) 2,529 5.4 -8.8°
